Tracking 18647 objects as of 29-May-2017
HD Live streaming from Space Station
objects crossing your sky now

COSMOS 2251 DEB

Track COSMOS 2251 DEB now!
10-day predictions


NORAD ID: 37120
Int'l Code: 1993-036BGS
Perigee: 732.8 km
Apogee: 811.7 km
Inclination: 74.0 °
Period: 100.1 minutes
Semi major axis: 7143 km
RCS: 0.0125 m2 (small)
Launch date: June 16, 1993
Source: Commonwealth of Independent States (former USSR) (CIS)
Launch site: PLESETSK MISSILE AND SPACE COMPLEX (PKMTR)

Note: This is SATELLITE DEBRIS
Your satellite tracking list
Your tracking list is empty





NASA's NSSDC Master Catalog

Two Line Element Set (TLE):
1 37120U 93036BGS 17146.74611207 +.00001391 +00000-0 +46012-3 0  9991
2 37120 074.0161 282.5958 0055225 011.5795 348.6614 14.38016592385838
Source of the keplerian elements: AFSPC